Location: Czekanka
(50.4925°N, 19.2643°E)
Time: 12:16:19
(UTC+00:00)

Cosmos 1937 Rocket - Pass Details

Date: 15 June 2024
Orbit: 745 x 777 km, 74.0° (Epoch: 16 July)

Event Time Altitude Azimuth Distance (km) Brightness Sun altitude
Exits shadow 00:58:02 14° 217° (SW) 2,072 5.1 -10.4°
Maximum altitude 01:02:36 63° 297° (WNW) 860 3.7 -10.0°
Drops below altitude 10° 01:07:49 10° 19° (NNE) 2,312 7.5 -9.6°
Sets 01:10:13 0° 23° (NNE) 3,236 8.8 -9.4°
